TimeEST,TemperatureF,Dew PointF,Humidity,Sea Level PressureIn,VisibilityMPH,Wind Direction,Wind SpeedMPH,Gust SpeedMPH,PrecipitationIn,Events,Conditions,WindDirDegrees,DateUTC
12:15 AM,14.0,8.6,79,29.93,10.0,Calm,Calm,-,N/A,,Mostly Cloudy,0,2012-11-29 05:15:00
12:35 AM,15.8,8.6,73,29.92,10.0,Calm,Calm,-,N/A,,Scattered Clouds,0,2012-11-29 05:35:00
12:55 AM,15.8,8.6,73,29.92,10.0,Calm,Calm,-,N/A,,Mostly Cloudy,0,2012-11-29 05:55:00
1:15 AM,15.8,8.6,73,29.92,10.0,Calm,Calm,-,N/A,,Mostly Cloudy,0,2012-11-29 06:15:00
1:35 AM,17.6,10.4,73,29.92,-9999.0,Calm,Calm,-,N/A,,Overcast,0,2012-11-29 06:35:00
1:55 AM,17.6,10.4,73,29.92,9.0,Calm,Calm,-,N/A,,Overcast,0,2012-11-29 06:55:00
2:35 AM,19.4,12.2,74,29.91,3.0,Calm,Calm,-,N/A,,Overcast,0,2012-11-29 07:35:00
2:55 AM,19.4,12.2,74,29.91,4.0,Calm,Calm,-,N/A,,Overcast,0,2012-11-29 07:55:00
3:15 AM,19.4,14.0,80,29.90,2.0,SSE,4.6,-,N/A,,Overcast,150,2012-11-29 08:15:00
3:35 AM,19.4,14.0,80,29.89,2.5,SE,3.5,-,N/A,,Overcast,140,2012-11-29 08:35:00
3:55 AM,19.4,14.0,80,29.88,4.0,SSE,3.5,-,N/A,,Overcast,150,2012-11-29 08:55:00
4:15 AM,19.4,14.0,80,29.89,10.0,SSE,3.5,-,N/A,,Overcast,150,2012-11-29 09:15:00
4:35 AM,19.4,14.0,80,29.88,10.0,SSE,4.6,-,N/A,,Overcast,160,2012-11-29 09:35:00
4:55 AM,19.4,12.2,74,29.87,10.0,South,4.6,-,N/A,,Overcast,190,2012-11-29 09:55:00
5:15 AM,19.4,12.2,74,29.87,10.0,SSW,4.6,-,N/A,,Mostly Cloudy,200,2012-11-29 10:15:00
5:35 AM,19.4,12.2,74,29.87,10.0,SSW,4.6,-,N/A,,Mostly Cloudy,210,2012-11-29 10:35:00
5:55 AM,19.4,14.0,80,29.88,10.0,Calm,Calm,-,N/A,,Overcast,0,2012-11-29 10:55:00
6:15 AM,19.4,15.8,86,29.88,10.0,Calm,Calm,-,N/A,,Overcast,0,2012-11-29 11:15:00
6:35 AM,21.2,15.8,80,29.89,10.0,WSW,5.8,-,N/A,,Mostly Cloudy,250,2012-11-29 11:35:00
6:55 AM,21.2,15.8,80,29.89,10.0,WSW,8.1,-,N/A,,Scattered Clouds,240,2012-11-29 11:55:00
7:15 AM,23.0,15.8,74,29.91,10.0,WSW,10.4,-,N/A,,Clear,250,2012-11-29 12:15:00
7:35 AM,23.0,15.8,74,29.91,10.0,West,13.8,17.3,N/A,,Partly Cloudy,270,2012-11-29 12:35:00
7:55 AM,23.0,12.2,63,29.91,10.0,West,15.0,26.5,N/A,,Mostly Cloudy,270,2012-11-29 12:55:00
8:15 AM,21.2,10.4,63,29.92,10.0,West,12.7,18.4,N/A,,Mostly Cloudy,260,2012-11-29 13:15:00
8:35 AM,21.2,10.4,63,29.92,10.0,West,15.0,19.6,N/A,,Scattered Clouds,260,2012-11-29 13:35:00
8:55 AM,23.0,10.4,59,29.93,10.0,West,13.8,20.7,N/A,,Partly Cloudy,260,2012-11-29 13:55:00
9:15 AM,21.2,8.6,58,29.94,10.0,West,18.4,26.5,N/A,,Partly Cloudy,270,2012-11-29 14:15:00
9:35 AM,21.2,6.8,54,29.95,10.0,West,13.8,25.3,N/A,,Clear,280,2012-11-29 14:35:00
9:55 AM,21.2,8.6,58,29.96,10.0,West,13.8,23.0,N/A,,Partly Cloudy,260,2012-11-29 14:55:00
10:15 AM,23.0,8.6,54,29.96,10.0,West,11.5,21.9,N/A,,Mostly Cloudy,260,2012-11-29 15:15:00
10:35 AM,21.2,3.2,46,29.95,10.0,West,12.7,-,N/A,,Mostly Cloudy,260,2012-11-29 15:35:00
10:55 AM,21.2,3.2,46,29.95,10.0,WNW,8.1,-,N/A,,Scattered Clouds,300,2012-11-29 15:55:00
11:15 AM,21.2,5.0,50,29.94,10.0,West,12.7,20.7,N/A,,Scattered Clouds,270,2012-11-29 16:15:00
11:35 AM,21.2,3.2,46,29.94,10.0,West,16.1,20.7,N/A,,Clear,270,2012-11-29 16:35:00
11:55 AM,23.0,3.2,43,29.93,10.0,West,11.5,19.6,N/A,,Clear,280,2012-11-29 16:55:00
12:15 PM,23.0,3.2,43,29.92,10.0,West,11.5,-,N/A,,Clear,280,2012-11-29 17:15:00
12:35 PM,23.0,3.2,43,29.92,10.0,West,15.0,-,N/A,,Clear,280,2012-11-29 17:35:00
12:55 PM,23.0,1.4,39,29.91,10.0,West,9.2,17.3,N/A,,Clear,270,2012-11-29 17:55:00
1:15 PM,24.8,3.2,40,29.90,10.0,WNW,9.2,-,N/A,,Clear,290,2012-11-29 18:15:00
1:35 PM,23.0,3.2,43,29.90,10.0,NW,6.9,-,N/A,,Clear,310,2012-11-29 18:35:00
1:55 PM,24.8,3.2,40,29.89,10.0,WNW,5.8,-,N/A,,Mostly Cloudy,290,2012-11-29 18:55:00
2:15 PM,24.8,3.2,40,29.89,10.0,WNW,8.1,-,N/A,,Mostly Cloudy,290,2012-11-29 19:15:00
2:35 PM,23.0,3.2,43,29.89,10.0,WNW,6.9,-,N/A,,Scattered Clouds,290,2012-11-29 19:35:00
2:55 PM,23.0,3.2,43,29.89,10.0,NW,8.1,-,N/A,,Mostly Cloudy,310,2012-11-29 19:55:00
3:15 PM,23.0,3.2,43,29.89,10.0,NW,4.6,-,N/A,,Overcast,310,2012-11-29 20:15:00
3:35 PM,23.0,3.2,43,29.89,10.0,WNW,4.6,-,N/A,,Overcast,300,2012-11-29 20:35:00
3:55 PM,23.0,3.2,43,29.89,10.0,NW,6.9,-,N/A,,Overcast,310,2012-11-29 20:55:00
4:15 PM,23.0,6.8,50,29.90,10.0,WNW,8.1,-,N/A,,Overcast,300,2012-11-29 21:15:00
4:35 PM,21.2,8.6,58,29.91,3.0,WNW,9.2,-,N/A,,Overcast,290,2012-11-29 21:35:00
4:55 PM,21.2,12.2,68,29.91,3.0,WNW,6.9,-,N/A,,Overcast,290,2012-11-29 21:55:00
5:15 PM,19.4,12.2,74,29.93,2.5,WNW,5.8,-,N/A,,Overcast,300,2012-11-29 22:15:00
5:55 PM,19.4,12.2,74,29.94,10.0,NW,4.6,-,N/A,,Overcast,320,2012-11-29 22:55:00
6:15 PM,19.4,10.4,68,29.94,10.0,NW,5.8,-,N/A,,Overcast,310,2012-11-29 23:15:00
6:35 PM,19.4,10.4,68,29.94,10.0,NW,6.9,-,N/A,,Overcast,310,2012-11-29 23:35:00
6:55 PM,19.4,8.6,63,29.95,10.0,WNW,6.9,-,N/A,,Mostly Cloudy,290,2012-11-29 23:55:00
7:15 PM,17.6,8.6,68,29.95,10.0,WNW,8.1,-,N/A,,Mostly Cloudy,290,2012-11-30 00:15:00
7:35 PM,17.6,8.6,68,29.95,10.0,WNW,6.9,-,N/A,,Scattered Clouds,300,2012-11-30 00:35:00
7:55 PM,17.6,8.6,68,29.96,7.0,North,16.1,20.7,N/A,,Mostly Cloudy,360,2012-11-30 00:55:00
8:35 PM,14.0,3.2,62,29.98,10.0,NNW,17.3,-,N/A,,Overcast,340,2012-11-30 01:35:00
8:55 PM,12.2,3.2,67,29.99,10.0,NW,15.0,19.6,N/A,,Scattered Clouds,320,2012-11-30 01:55:00
9:15 PM,12.2,1.4,62,30.00,10.0,NNW,16.1,20.7,N/A,,Scattered Clouds,330,2012-11-30 02:15:00
9:35 PM,12.2,-0.4,57,30.01,10.0,NW,10.4,18.4,N/A,,Partly Cloudy,310,2012-11-30 02:35:00
9:55 PM,12.2,-0.4,57,30.02,10.0,NW,10.4,-,N/A,,Clear,310,2012-11-30 02:55:00
10:15 PM,10.4,-0.4,62,30.02,10.0,NW,10.4,-,N/A,,Clear,320,2012-11-30 03:15:00
10:35 PM,10.4,-0.4,62,30.03,10.0,NW,5.8,-,N/A,,Clear,310,2012-11-30 03:35:00
10:55 PM,10.4,-2.2,57,30.04,10.0,NW,9.2,-,N/A,,Clear,310,2012-11-30 03:55:00
11:15 PM,10.4,-2.2,57,30.05,10.0,NW,6.9,-,N/A,,Clear,310,2012-11-30 04:15:00
11:35 PM,10.4,-2.2,57,30.05,10.0,WNW,6.9,-,N/A,,Clear,300,2012-11-30 04:35:00
11:55 PM,10.4,-4.0,52,30.06,10.0,WNW,6.9,-,N/A,,Clear,300,2012-11-30 04:55:00